[[{"header":{"parameterUnit":"m.s-1","parameterCategory":1,"la1":30.2991,"la2":30.254,"lo1":-89.0895,"lo2":-89.0444,"dy":0.0017,"dx":0.0017,"nx":28,"ny":28,"refTime":"2025-11-30T09:00:00:Z","depth":0,"parameterNumber":2,"parameterNumberName":"U-component_of_WINDS"},"data":[0,0,0,0,0,0,0,0,0,0,0,0,0,0,0,0,0,0,0,0,0,0,0,0,0,0,0,0,0,0,0,0,0,0,0,0,0,0,0,0,0,0,0,0,0,0,0,0,0,0,0,0,0,0,0,0,0,0,-3.6792,-3.6794,0,-3.6965,-3.6967,-3.6969,-3.6903,-3.6899,-3.6895,-3.6892,-3.7079,-3.7087,-3.7096,0,0,0,0,0,0,0,0,0,0,0,0,0,-3.6413,-3.642,-3.6791,-3.6794,-3.6796,-3.6965,-3.6967,-3.697,-3.6904,-3.6899,-3.6894,-3.689,-3.7076,-3.7086,-3.7096,0,0,0,0,0,0,0,0,0,0,0,0,0,-3.6582,-3.6423,-3.6791,-3.6783,-3.6784,-3.6964,-3.6967,-3.697,-3.6905,-3.6899,-3.6893,-3.6887,-3.7072,-3.7085,-3.7098,-3.7299,0,0,-3.7138,-3.7143,0,0,0,0,0,0,0,0,-3.6572,-3.6596,-3.6782,-3.6784,-3.6786,-3.6906,-3.6902,-3.7081,-3.6907,-3.686,-3.6891,-3.6885,-3.7027,-3.7043,-3.7089,-3.7308,-3.7316,-3.7139,-3.7147,-3.7152,-3.7156,0,0,0,0,0,0,0,-3.656,-3.6588,-3.686,-3.6785,-3.6787,-3.6774,-3.6792,-3.6936,-3.6975,-3.6863,-3.6859,-3.688,-3.7027,-3.7077,-3.7093,-3.7318,-3.7139,-3.715,-3.7158,-3.7163,-3.7715,-3.7722,0,0,0,0,0,0,-3.6547,-3.6578,-3.6855,-3.6866,-3.6661,-3.6786,-3.6805,-3.6874,-3.6973,-3.6982,-3.6885,-3.6876,-3.7057,-3.7078,-3.7099,-3.7344,-3.7152,-3.7165,-3.7172,-3.7708,-3.7717,-3.7724,0,0,0,0,0,0,-3.6539,-3.6572,-3.6848,-3.6721,-3.6755,-3.6799,-3.6876,-3.688,-3.693,-3.6989,-3.6997,-3.6928,-3.7053,-3.7081,-3.725,-3.735,-3.717,-3.7182,-3.77,-3.7711,-3.772,-3.7833,0,0,0,0,0,0,-3.6528,-3.657,-3.6644,-3.6723,-3.6762,-3.6993,-3.6882,-3.6888,-3.6952,-3.6942,-3.7032,-3.7041,-3.7051,-3.7231,-3.7263,-3.7364,-3.7193,-3.7692,-3.7705,-3.7717,-3.7821,-3.7846,-3.7868,0,0,0,0,0,-3.6515,-3.667,-3.6648,-3.6682,-3.6855,-3.6998,-3.7021,-3.7026,-3.696,-3.7037,-3.7076,-3.7039,-3.7333,-3.7249,-3.7284,-3.7391,-3.7685,-3.7701,-3.7716,-3.781,-3.7841,-3.7867,0,0,0,0,0,0,-3.6604,-3.668,-3.6657,-3.6841,-3.6913,-3.6987,-3.7084,-3.7058,-3.7153,-3.7141,-3.7146,-3.7167,-3.7342,-3.7383,-3.7288,-3.7593,-3.75,-3.7523,-3.7559,-3.7589,-3.7612,-3.7599,-3.7203,0,0,0,0,0,-3.6644,-3.6751,-3.6813,-3.697,-3.7007,-3.704,-3.7102,-3.71,-3.7177,-3.7208,-3.7258,-3.7337,-3.7448,-3.752,-3.7625,-3.7826,-3.7847,-3.7918,-3.7941,-3.796,-3.7981,-3.8094,-3.8127,-3.7774,-3.7774,-3.7774,0,0,-3.673,-3.6785,-3.6852,-3.6989,-3.7045,-3.716,-3.7066,-3.719,-3.7276,-3.7228,-3.739,-3.7431,-3.7519,-3.7706,-3.7791,-3.7746,-3.8083,-3.798,-3.7994,-3.8005,-3.8113,-3.8147,-3.8177,-3.7785,-3.7783,-3.7781,0,0,-3.6945,-3.6996,-3.7133,-3.7191,-3.7276,-3.7297,-3.733,-3.7409,-3.7433,-3.7596,-3.7563,-3.7667,-3.7856,-3.7921,-3.7979,-3.8222,-3.8193,-3.8256,-3.8379,-3.849,-3.8518,-3.8542,-3.8632,-3.8664,-3.8276,-3.8277,-3.8277,0,-3.7041,-3.7209,-3.7208,-3.7335,-3.7398,-3.7357,-3.7499,-3.7557,-3.7673,-3.772,-3.7667,-3.7905,-3.7962,-3.8165,-3.8225,-3.8272,-3.8313,-3.8247,-3.8513,-3.8538,-3.8561,-3.8647,-3.868,-3.8284,-3.8283,-3.8282,-3.8282,0,-3.7325,-3.7442,-3.7544,-3.7655,-3.7729,-3.7864,-3.7887,-3.7963,-3.7955,-3.7983,-3.8152,-3.8218,-3.8337,-3.8385,-3.8379,-3.8589,-3.8559,-3.851,-3.8417,-3.8602,-3.8683,-3.8716,-3.8294,-3.8292,-3.829,-3.8288,0,0,-3.76,-3.771,-3.7747,-3.7799,-3.7891,-3.7984,-3.8118,-3.8232,-3.8299,-3.8381,-3.8497,-3.8659,-3.8615,-3.8681,-3.8682,-3.8779,-3.8972,-3.8719,-3.8721,-3.8766,-3.9212,-3.925,-3.9287,-3.8952,-3.8958,-3.8963,-3.9205,0,-3.7824,-3.8056,-3.806,-3.8275,-3.8386,-3.835,-3.8467,-3.8539,-3.8569,-3.867,-3.8705,-3.8821,-3.8752,-3.8792,-3.8886,-3.8928,-3.9062,-3.891,-3.9064,-3.9069,-3.9044,-3.9329,-3.9369,-3.9594,-3.9237,-3.9242,-3.9246,0,-3.8116,-3.8206,-3.8431,-3.851,-3.8556,-3.8661,-3.8768,-3.8864,-3.8946,-3.8962,-3.9037,-3.9025,-3.9166,-3.9067,-3.9265,-3.9162,-3.9226,-3.9256,-3.9265,-3.9281,-3.917,-3.9356,-3.9665,-3.97,-3.9295,-3.9291,-3.9288,0,-3.8297,-3.8475,-3.8633,-3.8678,-3.8773,-3.8849,-3.8893,-3.8969,-3.9038,-3.9133,-3.9178,-3.9289,-3.9351,-3.9439,-3.9458,-3.9384,-3.9658,-3.956,-3.9678,-3.9678,-3.9739,-3.9735,-4.0066,-3.9776,-3.9776,-3.9775,-3.9774,0,-3.8548,-3.8688,-3.8716,-3.8814,-3.8971,-3.8977,-3.9134,-3.9172,-3.9241,-3.9349,-3.9325,-3.9428,-3.9446,-3.9554,-3.9571,-3.9734,-3.9762,-3.9781,-3.9785,-3.9785,-3.9783,-3.9828,-3.9814,-3.9784,-3.9782,-3.978,-3.9779,0,-3.8777,-3.8801,-3.8972,-3.9048,-3.9071,-3.9184,-3.9251,-3.9347,-3.9375,-3.9512,-3.9545,-3.959,-3.9716,-3.9744,-3.9894,-3.9906,-4.0101,-4.0087,-4.0072,-4.0072,-4.019,-4.018,-4.0563,-4.0615,-4.0289,-4.0292,-4.0295,0,-3.8936,-3.9043,-3.9131,-3.92,-3.9247,-3.9358,-3.9429,-3.944,-3.9515,-3.9619,-3.9703,-3.9826,-3.9925,-4.0129,-4.0178,-4.0294,-4.0285,-4.0411,-4.0303,-4.0301,-4.0291,-4.0285,-4.0298,-4.0433,-4.0436,-4.0439,-4.0441,0,-3.9218,-3.9225,-3.9325,-3.9432,-3.9516,-3.9601,-3.9682,-3.9741,-3.9764,-3.985,-3.9977,-4.0054,-4.0207,-4.0331,-4.0448,-4.0497,-4.0476,-4.0475,-4.0509,-4.0512,-4.0499,-4.0511,-4.0132,-4.0467,-4.0464,-4.0462,-4.0461,-4.046,-3.9419,-3.9513,-3.959,-3.9704,-3.9766,-3.9843,-3.9937,-3.9977,-4.0082,-4.0205,-4.0207,-4.0347,-4.0431,-4.0585,-4.0642,-4.0754,-4.0716,-4.0764,-4.0777,-4.079,-4.0802,-4.048,-4.0775,-4.0775,-4.0774,-4.0774,-4.0773,0,-3.9701,-3.9749,-3.9853,-3.9967,-4.0058,-4.0026,-4.0115,-4.0194,-4.0317,-4.0395,-4.0493,-4.0642,-4.0763,-4.0821,-4.0942,-4.1021,-4.1015,-4.1053,-4.1049,-4.1061,-4.0828,-4.0787,-4.1057,-4.1057,-4.1057,-4.1056,-4.1056,-4.1056,-3.9858,-4.0017,-4.0034,-4.0225,-4.0273,-4.0408,-4.0462,-4.0534,-4.0597,-4.0763,-4.0862,-4.0899,-4.0971,-4.1097,-4.1209,-4.1223,-4.127,-4.1314,-4.1325,-4.1106,-4.1077,-4.105,-4.1012,-4.1324,-4.1324,-4.1549,-4.1551,-4.1552]},{"header":{"parameterUnit":"m.s-1","parameterCategory":1,"la1":30.2991,"la2":30.254,"lo1":-89.0895,"lo2":-89.0444,"dy":0.0017,"dx":0.0017,"nx":28,"ny":28,"refTime":"2025-11-30T09:00:00:Z","depth":0,"parameterNumber":3,"parameterNumberName":"V-component_of_WINDS"},"data":[0,0,0,0,0,0,0,0,0,0,0,0,0,0,0,0,0,0,0,0,0,0,0,0,0,0,0,0,0,0,0,0,0,0,0,0,0,0,0,0,0,0,0,0,0,0,0,0,0,0,0,0,0,0,0,0,0,0,-3.0721,-3.072,0,-3.0633,-3.0632,-3.0631,-3.0538,-3.0537,-3.0536,-3.0534,-3.0442,-3.0441,-3.0439,0,0,0,0,0,0,0,0,0,0,0,0,0,-3.0805,-3.0804,-3.0721,-3.072,-3.0719,-3.0633,-3.0632,-3.0631,-3.0538,-3.0537,-3.0535,-3.0534,-3.0442,-3.0441,-3.0439,0,0,0,0,0,0,0,0,0,0,0,0,0,-3.0748,-3.0804,-3.0721,-3.0662,-3.0656,-3.0633,-3.0632,-3.063,-3.0539,-3.0537,-3.0535,-3.0533,-3.0443,-3.0441,-3.0439,-3.0466,0,0,-3.0433,-3.0432,0,0,0,0,0,0,0,0,-3.0751,-3.0745,-3.0672,-3.0666,-3.0659,-3.0594,-3.0627,-3.0575,-3.0539,-3.0583,-3.0534,-3.0532,-3.0494,-3.0488,-3.0475,-3.0462,-3.0458,-3.0433,-3.0432,-3.0431,-3.0431,0,0,0,0,0,0,0,-3.0755,-3.0748,-3.0686,-3.0671,-3.0663,-3.0639,-3.0629,-3.0617,-3.055,-3.0579,-3.0572,-3.0563,-3.049,-3.0478,-3.0473,-3.0456,-3.0433,-3.0431,-3.043,-3.043,-3.0457,-3.0458,0,0,0,0,0,0,-3.0769,-3.0752,-3.0689,-3.0683,-3.0702,-3.0639,-3.0628,-3.0617,-3.055,-3.0538,-3.0565,-3.0559,-3.0482,-3.0475,-3.0469,-3.0494,-3.0431,-3.0429,-3.0428,-3.0455,-3.0457,-3.0459,0,0,0,0,0,0,-3.0771,-3.0764,-3.0692,-3.0716,-3.0705,-3.064,-3.0629,-3.0617,-3.0604,-3.054,-3.0527,-3.0565,-3.048,-3.0472,-3.0467,-3.0489,-3.0428,-3.0427,-3.0453,-3.0455,-3.0458,-3.0546,0,0,0,0,0,0,-3.0774,-3.0765,-3.0776,-3.0717,-3.0704,-3.0693,-3.063,-3.0616,-3.0601,-3.0593,-3.0536,-3.0525,-3.0478,-3.047,-3.0465,-3.0486,-3.0425,-3.045,-3.0454,-3.0457,-3.054,-3.0551,-3.056,0,0,0,0,0,-3.0777,-3.0804,-3.0777,-3.077,-3.0716,-3.0695,-3.0687,-3.0634,-3.0603,-3.0613,-3.0571,-3.0526,-3.0488,-3.0471,-3.0464,-3.0484,-3.0449,-3.0453,-3.0457,-3.0536,-3.0549,-3.056,0,0,0,0,0,0,-3.0868,-3.0796,-3.0765,-3.0774,-3.0741,-3.0679,-3.069,-3.065,-3.0624,-3.0617,-3.0551,-3.0539,-3.0541,-3.0512,-3.0494,-3.0505,-3.0462,-3.0465,-3.0524,-3.0536,-3.0546,-3.0552,-3.0424,0,0,0,0,0,-3.0889,-3.0879,-3.0816,-3.083,-3.0815,-3.0755,-3.0744,-3.0705,-3.0669,-3.0654,-3.0612,-3.0577,-3.0557,-3.0545,-3.0523,-3.0536,-3.052,-3.0546,-3.0556,-3.0565,-3.0568,-3.0569,-3.0579,-3.0473,-3.0473,-3.0473,0,0,-3.0932,-3.0892,-3.0889,-3.0847,-3.0817,-3.0806,-3.0744,-3.0736,-3.0727,-3.0652,-3.0645,-3.0613,-3.0569,-3.0573,-3.0572,-3.0549,-3.0594,-3.057,-3.0577,-3.0575,-3.0575,-3.0585,-3.0594,-3.0476,-3.0475,-3.0475,0,0,-3.1006,-3.0975,-3.0982,-3.0953,-3.0909,-3.0868,-3.087,-3.0814,-3.079,-3.0781,-3.0724,-3.0712,-3.0679,-3.0649,-3.063,-3.069,-3.0647,-3.0685,-3.0736,-3.0738,-3.0746,-3.0754,-3.0772,-3.078,-3.0688,-3.0688,-3.0688,0,-3.1065,-3.1048,-3.0991,-3.0985,-3.0967,-3.09,-3.0905,-3.088,-3.083,-3.0818,-3.0793,-3.0749,-3.0715,-3.0709,-3.0723,-3.0711,-3.0709,-3.069,-3.075,-3.0757,-3.0762,-3.0779,-3.0787,-3.0693,-3.0692,-3.0692,-3.0691,0,-3.1122,-3.111,-3.1121,-3.1075,-3.1058,-3.1059,-3.1,-3.099,-3.0952,-3.0914,-3.0904,-3.0861,-3.0828,-3.0824,-3.0787,-3.0812,-3.0798,-3.0763,-3.0717,-3.0778,-3.0793,-3.0799,-3.07,-3.0698,-3.0697,-3.0695,0,0,-3.125,-3.1171,-3.1176,-3.1153,-3.1098,-3.1088,-3.1084,-3.1052,-3.1043,-3.1011,-3.1004,-3.0977,-3.0943,-3.0921,-3.088,-3.0882,-3.0929,-3.0845,-3.0843,-3.0861,-3.095,-3.0977,-3.0985,-3.09,-3.0902,-3.0902,-3.0953,0,-3.1312,-3.1302,-3.125,-3.1255,-3.1242,-3.1176,-3.1172,-3.1137,-3.1101,-3.1084,-3.1043,-3.1024,-3.0982,-3.0968,-3.0967,-3.0924,-3.0946,-3.0919,-3.0891,-3.0891,-3.0903,-3.0993,-3.1022,-3.1072,-3.0959,-3.096,-3.0961,0,-3.1384,-3.1356,-3.136,-3.1303,-3.1295,-3.1293,-3.1258,-3.1243,-3.1201,-3.1174,-3.1149,-3.1103,-3.1092,-3.1051,-3.1034,-3.1017,-3.1002,-3.0979,-3.098,-3.0974,-3.0929,-3.0988,-3.1087,-3.1094,-3.097,-3.0969,-3.0968,0,-3.1475,-3.1438,-3.1435,-3.1417,-3.1352,-3.1351,-3.1323,-3.1279,-3.1263,-3.1231,-3.1219,-3.1187,-3.117,-3.1145,-3.109,-3.1065,-3.1079,-3.1033,-3.1054,-3.1055,-3.1059,-3.1059,-3.1155,-3.1053,-3.1052,-3.1052,-3.1052,0,-3.1549,-3.1553,-3.1474,-3.1472,-3.1474,-3.1413,-3.1416,-3.1382,-3.1343,-3.1331,-3.1272,-3.1262,-3.1192,-3.1173,-3.113,-3.1121,-3.1114,-3.109,-3.1078,-3.1094,-3.1097,-3.1083,-3.1077,-3.1054,-3.1054,-3.1053,-3.1053,0,-3.1651,-3.1598,-3.159,-3.1528,-3.1512,-3.1516,-3.1462,-3.1456,-3.1416,-3.1402,-3.1395,-3.1331,-3.1306,-3.1249,-3.1208,-3.1179,-3.118,-3.116,-3.1195,-3.1187,-3.121,-3.1208,-3.1299,-3.1306,-3.1202,-3.1203,-3.1204,0,-3.1701,-3.1703,-3.1641,-3.1629,-3.1604,-3.1586,-3.1568,-3.1507,-3.1491,-3.1442,-3.1441,-3.1411,-3.1384,-3.1346,-3.1295,-3.1262,-3.124,-3.1274,-3.1234,-3.125,-3.1237,-3.1237,-3.1236,-3.1282,-3.1284,-3.1285,-3.1286,0,-3.1795,-3.1768,-3.1746,-3.1714,-3.1694,-3.1666,-3.1634,-3.1628,-3.1558,-3.1543,-3.1516,-3.1495,-3.1453,-3.1423,-3.1382,-3.1351,-3.1306,-3.1299,-3.1301,-3.1317,-3.1336,-3.1324,-3.1217,-3.1297,-3.1295,-3.1295,-3.1294,-3.1294,-3.1871,-3.1868,-3.1824,-3.18,-3.1769,-3.174,-3.1731,-3.169,-3.1667,-3.1628,-3.1593,-3.157,-3.1524,-3.1465,-3.1437,-3.1415,-3.1393,-3.1398,-3.1399,-3.14,-3.1406,-3.1341,-3.1408,-3.1408,-3.1407,-3.1407,-3.1407,0,-3.196,-3.1928,-3.1906,-3.1864,-3.1844,-3.1805,-3.1767,-3.1752,-3.1733,-3.1695,-3.1669,-3.1637,-3.1606,-3.1553,-3.1517,-3.151,-3.1488,-3.1503,-3.1502,-3.1495,-3.1429,-3.143,-3.1521,-3.1521,-3.1521,-3.1521,-3.1521,-3.1521,-3.2004,-3.1997,-3.1965,-3.1941,-3.1908,-3.1885,-3.1866,-3.1838,-3.1807,-3.1774,-3.1749,-3.1715,-3.1669,-3.163,-3.1599,-3.1584,-3.1572,-3.1593,-3.1571,-3.1511,-3.15,-3.149,-3.1489,-3.1592,-3.1592,-3.1638,-3.1638,-3.1638]}]]